[[{"header":{"parameterUnit":"m.s-1","parameterCategory":1,"la1":30.2991,"la2":30.254,"lo1":-89.0895,"lo2":-89.0444,"dy":0.0017,"dx":0.0017,"nx":28,"ny":28,"refTime":"2024-09-30T03:00:00:Z","depth":0,"parameterNumber":2,"parameterNumberName":"U-component_of_WINDS"},"data":[0,0,0,0,0,0,0,0,0,0,0,0,0,0,0,0,0,0,0,0,0,0,0,0,0,0,0,0,0,0,0,0,0,0,0,0,0,0,0,0,0,0,0,0,0,0,0,0,0,0,0,0,0,0,0,0,0,0,-0.7532,-0.7532,0,-0.7543,-0.7543,-0.7543,-0.76,-0.7602,-0.7603,-0.7604,-0.7611,-0.761,-0.7609,0,0,0,0,0,0,0,0,0,0,0,0,0,-0.7555,-0.7554,-0.7532,-0.7532,-0.7532,-0.7543,-0.7543,-0.7543,-0.76,-0.7602,-0.7604,-0.7605,-0.7611,-0.761,-0.7609,0,0,0,0,0,0,0,0,0,0,0,0,0,-0.7553,-0.7554,-0.7532,-0.7562,-0.7565,-0.7543,-0.7543,-0.7543,-0.76,-0.7602,-0.7604,-0.7606,-0.7612,-0.761,-0.7609,-0.7557,0,0,-0.7603,-0.7603,0,0,0,0,0,0,0,0,-0.7553,-0.7552,-0.7557,-0.756,-0.7563,-0.7573,-0.7554,-0.7548,-0.7599,-0.7586,-0.7605,-0.7607,-0.7596,-0.7596,-0.7593,-0.7557,-0.7558,-0.7603,-0.7602,-0.7602,-0.7601,0,0,0,0,0,0,0,-0.7553,-0.7552,-0.7536,-0.7557,-0.7561,-0.7573,-0.7575,-0.7553,-0.7579,-0.7588,-0.7592,-0.7593,-0.7598,-0.7595,-0.7594,-0.7558,-0.7603,-0.7602,-0.7601,-0.76,-0.7478,-0.7475,0,0,0,0,0,0,-0.755,-0.7552,-0.7536,-0.7537,-0.7563,-0.7571,-0.7574,-0.7567,-0.758,-0.7584,-0.7591,-0.7595,-0.7597,-0.7596,-0.7594,-0.7533,-0.7602,-0.76,-0.7599,-0.748,-0.7477,-0.7475,0,0,0,0,0,0,-0.755,-0.7548,-0.7535,-0.7545,-0.7545,-0.7569,-0.7561,-0.7567,-0.7563,-0.7582,-0.7587,-0.7583,-0.7598,-0.7597,-0.7566,-0.7534,-0.7599,-0.7598,-0.7483,-0.7479,-0.7476,-0.741,0,0,0,0,0,0,-0.7551,-0.7548,-0.7529,-0.7545,-0.7544,-0.7508,-0.7559,-0.7565,-0.7561,-0.7567,-0.7576,-0.758,-0.76,-0.7568,-0.7564,-0.7533,-0.7597,-0.7485,-0.7481,-0.7477,-0.7415,-0.7405,-0.7396,0,0,0,0,0,-0.7551,-0.751,-0.7528,-0.7526,-0.7522,-0.7506,-0.7505,-0.7531,-0.7558,-0.7539,-0.7551,-0.7579,-0.7539,-0.7564,-0.756,-0.7528,-0.7487,-0.7482,-0.7477,-0.7419,-0.7407,-0.7396,0,0,0,0,0,0,-0.7489,-0.7512,-0.7533,-0.7496,-0.7499,-0.7516,-0.7492,-0.7517,-0.7511,-0.7516,-0.7547,-0.7548,-0.7512,-0.7518,-0.7546,-0.7478,-0.7518,-0.7512,-0.7475,-0.7463,-0.7454,-0.7451,-0.7595,0,0,0,0,0,-0.7471,-0.7458,-0.7479,-0.7444,-0.7444,-0.7468,-0.7462,-0.7481,-0.7485,-0.7486,-0.7496,-0.7496,-0.7484,-0.7474,-0.7464,-0.7417,-0.7418,-0.7393,-0.7383,-0.7376,-0.7369,-0.7341,-0.7329,-0.7458,-0.7458,-0.7458,0,0,-0.7433,-0.7445,-0.7434,-0.7431,-0.7436,-0.7419,-0.7468,-0.7449,-0.7436,-0.7482,-0.7453,-0.746,-0.7463,-0.7423,-0.7406,-0.7427,-0.7334,-0.7369,-0.7363,-0.736,-0.7335,-0.7323,-0.7312,-0.7454,-0.7455,-0.7456,0,0,-0.7355,-0.7364,-0.7335,-0.7339,-0.7345,-0.7361,-0.7354,-0.7368,-0.7375,-0.7347,-0.738,-0.7365,-0.7343,-0.7343,-0.734,-0.7262,-0.7286,-0.7258,-0.7206,-0.7179,-0.7169,-0.716,-0.7129,-0.7118,-0.7252,-0.7252,-0.7252,0,-0.7307,-0.7285,-0.7316,-0.7294,-0.7291,-0.7334,-0.7303,-0.7305,-0.7307,-0.7302,-0.7326,-0.7298,-0.7304,-0.7263,-0.7244,-0.7241,-0.7232,-0.7255,-0.7169,-0.716,-0.7152,-0.7122,-0.7111,-0.7248,-0.7248,-0.7249,-0.7249,0,-0.7223,-0.7207,-0.7183,-0.7185,-0.7179,-0.7153,-0.7178,-0.7168,-0.7189,-0.7202,-0.7171,-0.7179,-0.717,-0.7162,-0.7182,-0.7124,-0.7136,-0.7164,-0.7204,-0.7135,-0.7108,-0.7097,-0.7242,-0.7244,-0.7245,-0.7246,0,0,-0.7104,-0.7125,-0.7115,-0.7115,-0.7126,-0.7113,-0.7088,-0.7081,-0.707,-0.707,-0.7048,-0.7029,-0.7054,-0.7051,-0.7071,-0.7047,-0.6981,-0.7078,-0.7078,-0.7056,-0.6913,-0.6889,-0.6876,-0.6999,-0.6997,-0.6996,-0.6912,0,-0.7027,-0.6986,-0.7014,-0.6968,-0.6951,-0.6993,-0.697,-0.6973,-0.6985,-0.6972,-0.6984,-0.6969,-0.7006,-0.7003,-0.6983,-0.6993,-0.6952,-0.7,-0.6975,-0.6973,-0.6969,-0.6863,-0.6837,-0.6758,-0.6902,-0.69,-0.6899,0,-0.6931,-0.6928,-0.688,-0.6893,-0.6887,-0.6867,-0.6861,-0.6849,-0.6852,-0.6862,-0.6859,-0.6884,-0.6858,-0.69,-0.6863,-0.6895,-0.6887,-0.689,-0.6888,-0.6883,-0.6929,-0.6851,-0.6734,-0.672,-0.6883,-0.6884,-0.6885,0,-0.6844,-0.6828,-0.6797,-0.6797,-0.6812,-0.6796,-0.6801,-0.6807,-0.68,-0.6795,-0.679,-0.6782,-0.6776,-0.6768,-0.6789,-0.6819,-0.6748,-0.6793,-0.6752,-0.6751,-0.6732,-0.6732,-0.6608,-0.6733,-0.6733,-0.6733,-0.6734,0,-0.6752,-0.6721,-0.6758,-0.6738,-0.6703,-0.6735,-0.6699,-0.6709,-0.6714,-0.6695,-0.6731,-0.6712,-0.6743,-0.6727,-0.6744,-0.6708,-0.6706,-0.6711,-0.6715,-0.6705,-0.6704,-0.6697,-0.6702,-0.673,-0.6731,-0.6732,-0.6732,0,-0.6648,-0.6672,-0.664,-0.6658,-0.6661,-0.6634,-0.6648,-0.6629,-0.6645,-0.662,-0.6616,-0.6638,-0.6621,-0.6642,-0.6627,-0.6638,-0.6588,-0.6603,-0.6587,-0.6589,-0.6546,-0.6548,-0.641,-0.6392,-0.6532,-0.6531,-0.653,0,-0.6586,-0.6563,-0.6578,-0.6569,-0.6572,-0.6557,-0.655,-0.6581,-0.6572,-0.6574,-0.6554,-0.654,-0.653,-0.65,-0.6513,-0.6501,-0.6512,-0.6465,-0.651,-0.6501,-0.6507,-0.6506,-0.6502,-0.6454,-0.6452,-0.6451,-0.645,0,-0.6472,-0.6486,-0.6476,-0.647,-0.6461,-0.6457,-0.6456,-0.6446,-0.6478,-0.6466,-0.6449,-0.6442,-0.6426,-0.641,-0.6401,-0.6405,-0.643,-0.6436,-0.6425,-0.6413,-0.6403,-0.6404,-0.6557,-0.6438,-0.6439,-0.644,-0.6441,-0.6441,-0.6385,-0.6365,-0.6372,-0.6359,-0.6362,-0.636,-0.6343,-0.6356,-0.6343,-0.6334,-0.6353,-0.633,-0.6333,-0.6324,-0.6324,-0.6305,-0.6325,-0.6311,-0.6306,-0.6301,-0.6293,-0.641,-0.6304,-0.6305,-0.6305,-0.6305,-0.6306,0,-0.627,-0.6277,-0.6265,-0.6263,-0.6252,-0.6281,-0.6281,-0.6269,-0.625,-0.6251,-0.6241,-0.622,-0.6205,-0.6218,-0.6205,-0.6187,-0.6198,-0.6182,-0.6181,-0.6181,-0.6278,-0.6286,-0.6173,-0.6173,-0.6173,-0.6173,-0.6173,-0.6173,-0.6208,-0.6176,-0.619,-0.6158,-0.6165,-0.6144,-0.6141,-0.6139,-0.614,-0.6115,-0.6104,-0.6113,-0.6118,-0.6105,-0.6092,-0.6096,-0.6087,-0.6065,-0.6073,-0.6162,-0.6175,-0.6187,-0.6195,-0.6064,-0.6064,-0.5977,-0.5977,-0.5976]},{"header":{"parameterUnit":"m.s-1","parameterCategory":1,"la1":30.2991,"la2":30.254,"lo1":-89.0895,"lo2":-89.0444,"dy":0.0017,"dx":0.0017,"nx":28,"ny":28,"refTime":"2024-09-30T03:00:00:Z","depth":0,"parameterNumber":3,"parameterNumberName":"V-component_of_WINDS"},"data":[0,0,0,0,0,0,0,0,0,0,0,0,0,0,0,0,0,0,0,0,0,0,0,0,0,0,0,0,0,0,0,0,0,0,0,0,0,0,0,0,0,0,0,0,0,0,0,0,0,0,0,0,0,0,0,0,0,0,-1.0639,-1.064,0,-1.0728,-1.0729,-1.073,-1.0788,-1.0788,-1.0789,-1.0789,-1.0879,-1.0881,-1.0883,0,0,0,0,0,0,0,0,0,0,0,0,0,-1.0519,-1.052,-1.0639,-1.064,-1.0641,-1.0728,-1.0729,-1.073,-1.0788,-1.0789,-1.0789,-1.0789,-1.0878,-1.0881,-1.0883,0,0,0,0,0,0,0,0,0,0,0,0,0,-1.0585,-1.0521,-1.0639,-1.068,-1.0685,-1.0727,-1.0729,-1.073,-1.0788,-1.0789,-1.0789,-1.079,-1.0878,-1.0881,-1.0884,-1.0891,0,0,-1.0893,-1.0894,0,0,0,0,0,0,0,0,-1.0581,-1.059,-1.0673,-1.0678,-1.0683,-1.0747,-1.0719,-1.0784,-1.0788,-1.0749,-1.0789,-1.079,-1.0835,-1.0841,-1.0857,-1.0895,-1.0899,-1.0893,-1.0895,-1.0896,-1.0897,0,0,0,0,0,0,0,-1.0577,-1.0586,-1.0674,-1.0674,-1.068,-1.0694,-1.0705,-1.0732,-1.0787,-1.0752,-1.0757,-1.0767,-1.0838,-1.0854,-1.0859,-1.09,-1.0893,-1.0896,-1.0898,-1.0899,-1.0948,-1.0947,0,0,0,0,0,0,-1.0566,-1.0582,-1.0671,-1.0677,-1.0633,-1.0696,-1.0708,-1.0726,-1.0787,-1.0797,-1.0766,-1.0769,-1.0848,-1.0856,-1.0863,-1.0874,-1.0896,-1.0899,-1.0901,-1.0948,-1.0948,-1.0947,0,0,0,0,0,0,-1.0563,-1.0573,-1.0668,-1.0631,-1.0644,-1.0698,-1.0718,-1.0728,-1.0744,-1.0798,-1.0808,-1.0772,-1.0849,-1.0858,-1.0883,-1.0878,-1.0901,-1.0903,-1.0949,-1.0948,-1.0947,-1.0898,0,0,0,0,0,0,-1.0559,-1.0572,-1.0575,-1.063,-1.0645,-1.0687,-1.0718,-1.0729,-1.0749,-1.0754,-1.0806,-1.0815,-1.085,-1.0878,-1.0886,-1.0883,-1.0906,-1.095,-1.0949,-1.0948,-1.09,-1.0896,-1.0892,0,0,0,0,0,-1.0555,-1.0558,-1.0575,-1.0586,-1.0651,-1.0687,-1.0695,-1.0735,-1.0748,-1.0752,-1.0787,-1.0814,-1.0878,-1.088,-1.089,-1.0887,-1.095,-1.0949,-1.0948,-1.0902,-1.0896,-1.0892,0,0,0,0,0,0,-1.0501,-1.0566,-1.0586,-1.0607,-1.0641,-1.0696,-1.0702,-1.0728,-1.0759,-1.0762,-1.081,-1.0821,-1.0841,-1.0867,-1.0869,-1.0897,-1.0917,-1.0918,-1.0879,-1.0874,-1.087,-1.0863,-1.0908,0,0,0,0,0,-1.0491,-1.0515,-1.0571,-1.0584,-1.06,-1.0648,-1.0665,-1.0693,-1.073,-1.0744,-1.0781,-1.0815,-1.0843,-1.086,-1.0889,-1.0905,-1.0916,-1.0907,-1.0903,-1.0899,-1.0899,-1.0908,-1.0904,-1.0943,-1.0943,-1.0943,0,0,-1.0472,-1.0511,-1.0523,-1.0574,-1.0603,-1.0626,-1.066,-1.0683,-1.07,-1.0748,-1.0773,-1.0801,-1.0843,-1.0863,-1.0873,-1.0885,-1.0891,-1.0898,-1.0894,-1.0896,-1.0906,-1.0903,-1.0899,-1.0943,-1.0943,-1.0943,0,0,-1.0449,-1.0481,-1.0495,-1.0523,-1.0568,-1.06,-1.0603,-1.0655,-1.0675,-1.0701,-1.0737,-1.0759,-1.0806,-1.0834,-1.0854,-1.084,-1.0866,-1.0848,-1.0825,-1.0834,-1.083,-1.0828,-1.0822,-1.0819,-1.0848,-1.0848,-1.0848,0,-1.0419,-1.0455,-1.0499,-1.0519,-1.054,-1.0585,-1.0599,-1.0625,-1.0676,-1.0689,-1.0702,-1.0761,-1.0792,-1.0819,-1.0816,-1.0831,-1.0835,-1.0842,-1.0827,-1.0825,-1.0824,-1.0818,-1.0816,-1.0845,-1.0846,-1.0846,-1.0846,0,-1.0416,-1.0441,-1.0447,-1.0495,-1.0517,-1.0534,-1.0579,-1.0596,-1.0622,-1.0652,-1.0678,-1.0717,-1.0754,-1.0763,-1.0789,-1.0793,-1.0798,-1.0818,-1.0839,-1.0817,-1.0813,-1.0811,-1.0842,-1.0843,-1.0843,-1.0844,0,0,-1.0361,-1.0433,-1.0434,-1.0456,-1.0508,-1.0527,-1.0546,-1.0583,-1.0596,-1.0629,-1.0646,-1.0685,-1.0703,-1.0726,-1.0755,-1.0763,-1.0748,-1.0782,-1.0784,-1.0773,-1.0754,-1.0738,-1.0735,-1.0766,-1.0766,-1.0766,-1.075,0,-1.0344,-1.0381,-1.042,-1.0443,-1.0465,-1.0508,-1.0524,-1.0557,-1.0586,-1.0609,-1.0641,-1.0667,-1.0691,-1.0705,-1.0714,-1.0748,-1.0745,-1.075,-1.0781,-1.0781,-1.0768,-1.0733,-1.0716,-1.0699,-1.0749,-1.0749,-1.0749,0,-1.033,-1.0361,-1.0386,-1.0435,-1.0446,-1.046,-1.0496,-1.0518,-1.0556,-1.0577,-1.0602,-1.0633,-1.0654,-1.0673,-1.0703,-1.0705,-1.072,-1.0739,-1.0739,-1.0743,-1.0763,-1.0734,-1.0695,-1.0692,-1.0747,-1.0747,-1.0747,0,-1.0286,-1.0334,-1.0355,-1.0373,-1.0431,-1.0439,-1.0464,-1.0503,-1.0522,-1.0553,-1.0566,-1.0599,-1.0617,-1.0642,-1.0681,-1.0691,-1.0706,-1.0729,-1.0723,-1.0721,-1.0723,-1.0722,-1.0685,-1.0734,-1.0734,-1.0735,-1.0735,0,-1.0262,-1.0275,-1.0336,-1.0348,-1.0364,-1.0409,-1.0423,-1.0451,-1.0486,-1.0504,-1.0543,-1.056,-1.0611,-1.0633,-1.0663,-1.0683,-1.0691,-1.0707,-1.0715,-1.0703,-1.0701,-1.0713,-1.0714,-1.0734,-1.0734,-1.0734,-1.0734,0,-1.0215,-1.0256,-1.0282,-1.0334,-1.0348,-1.0357,-1.0402,-1.0415,-1.0447,-1.0469,-1.0477,-1.0526,-1.0554,-1.0596,-1.0636,-1.0657,-1.0671,-1.0684,-1.0658,-1.0662,-1.0653,-1.0653,-1.0621,-1.0619,-1.0671,-1.067,-1.067,0,-1.0197,-1.0208,-1.0262,-1.0277,-1.03,-1.0324,-1.0344,-1.0388,-1.0407,-1.0451,-1.0459,-1.049,-1.0517,-1.056,-1.0599,-1.063,-1.0644,-1.063,-1.0648,-1.0636,-1.0642,-1.064,-1.0641,-1.0626,-1.0625,-1.0624,-1.0624,0,-1.016,-1.018,-1.0206,-1.024,-1.0262,-1.029,-1.0321,-1.0331,-1.0382,-1.0401,-1.043,-1.0451,-1.0492,-1.0522,-1.0559,-1.0584,-1.0611,-1.0618,-1.0618,-1.0605,-1.0589,-1.0596,-1.0645,-1.0618,-1.0619,-1.0619,-1.0619,-1.062,-1.0126,-1.0138,-1.0177,-1.0205,-1.0232,-1.026,-1.0275,-1.0308,-1.0333,-1.037,-1.0395,-1.0422,-1.046,-1.0511,-1.0535,-1.0557,-1.0569,-1.0569,-1.0569,-1.0568,-1.0563,-1.0586,-1.0564,-1.0564,-1.0564,-1.0564,-1.0564,0,-1.009,-1.0118,-1.0143,-1.0184,-1.0206,-1.0231,-1.0266,-1.0282,-1.0306,-1.0338,-1.0364,-1.0397,-1.0427,-1.0467,-1.05,-1.0509,-1.0523,-1.0516,-1.0515,-1.052,-1.0551,-1.0547,-1.0504,-1.0504,-1.0504,-1.0504,-1.0504,-1.0504,-1.0074,-1.0094,-1.0118,-1.0152,-1.0179,-1.0207,-1.0224,-1.0249,-1.0275,-1.031,-1.0335,-1.0362,-1.0397,-1.0432,-1.046,-1.0471,-1.0481,-1.047,-1.0484,-1.0513,-1.0518,-1.0523,-1.052,-1.0472,-1.0472,-1.0451,-1.0451,-1.0451]}]]